GW3555 Weather Reports


Display with metric or nautical units.
time (UTC)temp
F
wind
direction
speed
MPH
gust
MPH
rain 1hr
in
rain 24hr
in
rain mn
in
humidity
%
barometer
mb
20260508113530 51 225 2.0 4.0 0.00 0.00 0.00 68 1012.8
20260508113106 51 238 3.0 4.0 0.00 0.00 0.00 69 1012.8
20260508112523 51 238 2.0 3.0 0.00 0.00 0.00 69 1012.9
20260508112027 51 229 2.0 4.0 0.00 0.00 0.00 69 1012.9
20260508111632 51 222 2.0 4.0 0.00 0.00 0.00 68 1012.8
20260508111032 51 242 2.0 3.0 0.00 0.00 0.00 69 1012.9
20260508110526 51 240 2.0 3.0 0.00 0.00 0.00 68 1012.8
20260508110116 51 247 1.0 3.0 0.00 0.00 0.00 68 1012.8
20260508105518 51 229 1.0 3.0 0.00 0.00 0.00 68 1012.9
20260508105041 51 229 1.0 3.0 0.00 0.00 0.00 68 1012.8
20260508104644 51 229 2.0 3.0 0.00 0.00 0.00 68 1012.8
20260508104037 51 228 2.0 4.0 0.00 0.00 0.00 69 1012.8
20260508103531 51 239 2.0 4.0 0.00 0.00 0.00 68 1012.9
20260508103118 51 249 2.0 4.0 0.00 0.00 0.00 68 1012.9
20260508102541 51 237 2.0 4.0 0.00 0.00 0.00 67 1012.8
20260508102038 51 254 2.0 4.0 0.00 0.00 0.00 67 1012.9
20260508101643 51 244 2.0 4.0 0.00 0.00 0.00 67 1013.0
20260508101020 51 239 2.0 4.0 0.00 0.00 0.00 66 1012.9
20260508100520 51 230 2.0 4.0 0.00 0.00 0.00 66 1013.1
20260508100125 51 244 2.0 4.0 0.00 0.00 0.00 67 1013.0
20260508095544 52 230 3.0 4.0 0.00 0.00 0.00 66 1013.1
20260508095021 52 239 2.0 5.0 0.00 0.00 0.00 65 1013.2
20260508094615 52 239 2.0 5.0 0.00 0.00 0.00 65 1013.0
20260508094037 52 220 3.0 5.0 0.00 0.00 0.00 64 1013.2
20260508093537 52 228 2.0 4.0 0.00 0.00 0.00 65 1013.1
20260508093116 52 240 2.0 5.0 0.00 0.00 0.00 64 1013.0
20260508092521 52 242 3.0 4.0 0.00 0.00 0.00 64 1013.0
20260508092035 52 239 2.0 4.0 0.00 0.00 0.00 65 1013.0
20260508091617 52 251 2.0 4.0 0.00 0.00 0.00 64 1013.0
20260508091028 52 234 2.0 5.0 0.00 0.00 0.00 64 1013.1
20260508090528 53 231 3.0 4.0 0.00 0.00 0.00 64 1013.0
20260508090114 53 237 2.0 4.0 0.00 0.00 0.00 64 1013.1
20260508085530 53 242 2.0 4.0 0.00 0.00 0.00 63 1013.1
20260508085029 53 225 3.0 4.0 0.00 0.00 0.00 64 1013.1
20260508084642 53 242 1.0 4.0 0.00 0.00 0.00 64 1013.1
20260508084022 53 228 2.0 5.0 0.00 0.00 0.00 65 1013.1
20260508083534 53 229 3.0 5.0 0.00 0.00 0.00 63 1013.3
20260508083132 53 234 1.0 4.0 0.00 0.00 0.00 63 1013.3
20260508082538 53 240 2.0 4.0 0.00 0.00 0.00 63 1013.3
20260508082037 54 225 2.0 4.0 0.00 0.00 0.00 62 1013.3
20260508081651 54 239 2.0 4.0 0.00 0.00 0.00 61 1013.1
20260508081023 54 224 3.0 4.0 0.00 0.00 0.00 62 1013.2
20260508080525 54 219 3.0 4.0 0.00 0.00 0.00 62 1013.1
20260508080047 54 242 2.0 4.0 0.00 0.00 0.00 62 1013.3
20260508075518 54 239 2.0 4.0 0.00 0.00 0.00 61 1013.2
20260508075023 54 223 3.0 4.0 0.00 0.00 0.00 61 1013.3
20260508074635 54 230 2.0 4.0 0.00 0.00 0.00 61 1013.2
20260508074111 55 233 2.0 5.0 0.00 0.00 0.00 60 1013.1
20260508073517 55 252 2.0 5.0 0.00 0.00 0.00 60 1013.1
20260508073140 55 223 3.0 5.0 0.00 0.00 0.00 59 1013.1
20260508072531 56 225 3.0 5.0 0.00 0.00 0.00 59 1013.1
20260508072023 56 250 3.0 5.0 0.00 0.00 0.00 58 1013.0
20260508071632 56 228 3.0 5.0 0.00 0.00 0.00 58 1013.0
20260508071027 56 211 2.0 5.0 0.00 0.00 0.00 58 1013.0
20260508070525 56 238 3.0 5.0 0.00 0.00 0.00 58 1013.0
20260508070049 57 236 2.0 5.0 0.00 0.00 0.00 56 1013.0
20260508065537 56 204 3.0 5.0 0.00 0.00 0.00 58 1013.1
20260508065030 56 214 3.0 5.0 0.00 0.00 0.00 59 1013.1
20260508064610 56 246 2.0 4.0 0.00 0.00 0.00 58 1013.1
20260508064032 57 257 2.0 5.0 0.00 0.00 0.00 57 1013.1
20260508063538 57 235 2.0 5.0 0.00 0.00 0.00 57 1013.2
20260508063126 57 248 3.0 7.0 0.00 0.00 0.00 56 1013.1
20260508062519 57 244 2.0 5.0 0.00 0.00 0.00 57 1013.1
20260508062023 58 251 2.0 4.0 0.00 0.00 0.00 55 1013.1
20260508061637 58 250 2.0 3.0 0.00 0.00 0.00 54 1013.1
20260508061045 58 279 0.0 4.0 0.00 0.00 0.00 55 1013.1
20260508060530 58 261 2.0 4.0 0.00 0.00 0.00 56 1013.0
20260508060129 58 242 2.0 4.0 0.00 0.00 0.00 55 1013.0
20260508055537 58 242 2.0 4.0 0.00 0.00 0.00 54 1012.9
20260508055037 58 243 1.0 3.0 0.00 0.00 0.00 54 1012.8
20260508054554 58 252 1.0 4.0 0.00 0.00 0.00 54 1012.9
20260508054032 59 237 1.0 4.0 0.00 0.00 0.00 53 1012.8
20260508053520 60 220 2.0 4.0 0.00 0.00 0.00 51 1012.8
20260508053117 59 269 1.0 3.0 0.00 0.00 0.00 51 1012.8
20260508052522 59 257 2.0 4.0 0.00 0.00 0.00 53 1012.8
20260508052020 60 233 2.0 4.0 0.00 0.00 0.00 53 1012.9
20260508051605 60 220 2.0 5.0 0.00 0.00 0.00 50 1012.8
20260508051028 60 273 2.0 5.0 0.00 0.00 0.00 51 1012.8
20260508050537 60 234 1.0 4.0 0.00 0.00 0.00 52 1012.8
20260508050138 60 231 1.0 4.0 0.00 0.00 0.00 52 1012.9
20260508045529 61 221 2.0 4.0 0.00 0.00 0.00 51 1012.8
20260508045017 61 209 2.0 4.0 0.00 0.00 0.00 49 1012.8
20260508044631 61 250 2.0 4.0 0.00 0.00 0.00 51 1012.8
20260508044037 61 230 2.0 4.0 0.00 0.00 0.00 51 1012.8
20260508043521 61 215 2.0 5.0 0.00 0.00 0.00 50 1012.7
20260508043125 62 198 2.0 5.0 0.00 0.00 0.00 50 1012.8
20260508042524 62 221 1.0 5.0 0.00 0.00 0.00 49 1012.7
20260508042041 62 184 1.0 5.0 0.00 0.00 0.00 48 1012.6
20260508041633 62 221 2.0 4.0 0.00 0.00 0.00 49 1012.5
20260508041018 62 229 1.0 3.0 0.00 0.00 0.00 49 1012.5
20260508040524 63 215 2.0 4.0 0.00 0.00 0.00 47 1012.5
20260508040147 63 221 1.0 5.0 0.00 0.00 0.00 48 1012.4
20260508035520 64 208 2.0 5.0 0.00 0.00 0.00 47 1012.4
20260508035035 64 233 1.0 4.0 0.00 0.00 0.00 48 1012.2
20260508034630 64 236 2.0 5.0 0.00 0.00 0.00 48 1012.2
20260508034023 64 230 2.0 6.0 0.00 0.00 0.00 47 1012.0
20260508033529 65 232 2.0 6.0 0.00 0.00 0.00 46 1012.1
20260508033130 65 215 3.0 4.0 0.00 0.00 0.00 45 1012.0
20260508032520 65 221 2.0 4.0 0.00 0.00 0.00 46 1012.1
20260508032032 66 202 1.0 3.0 0.00 0.00 0.00 45 1012.0
20260508031632 67 203 2.0 3.0 0.00 0.00 0.00 43 1011.9
20260508031020 68 268 0.0 3.0 0.00 0.00 0.00 41 1011.8
20260508030520 68 270 0.0 4.0 0.00 0.00 0.00 39 1011.8
20260508030128 69 242 1.0 3.0 0.00 0.00 0.00 38 1011.7
20260508025523 69 236 1.0 3.0 0.00 0.00 0.00 40 1011.7
20260508025031 69 231 1.0 4.0 0.00 0.00 0.00 39 1011.8
20260508024616 70 180 2.0 5.0 0.00 0.00 0.00 38 1011.8
20260508024019 70 240 1.0 4.0 0.00 0.00 0.00 38 1011.8
20260508023532 70 257 1.0 4.0 0.00 0.00 0.00 37 1011.8
20260508023129 70 234 1.0 2.0 0.00 0.00 0.00 37 1011.8
20260508022530 70 229 1.0 3.0 0.00 0.00 0.00 38 1011.8
20260508022024 71 225 1.0 4.0 0.00 0.00 0.00 38 1011.7
20260508021637 71 116 1.0 4.0 0.00 0.00 0.00 35 1011.8
20260508021036 72 98 0.0 3.0 0.00 0.00 0.00 34 1011.7
20260508020523 72 222 0.0 5.0 0.00 0.00 0.00 36 1011.8
20260508020140 72 317 1.0 5.0 0.00 0.00 0.00 31 1011.8
20260508015530 73 142 0.0 2.0 0.00 0.00 0.00 33 1011.7
20260508015024 73 158 0.0 2.0 0.00 0.00 0.00 35 1011.5
20260508014614 73 208 0.0 2.0 0.00 0.00 0.00 32 1011.8
20260508014025 73 208 0.0 2.0 0.00 0.00 0.00 30 1011.6
20260508013537 74 212 0.0 2.0 0.00 0.00 0.00 32 1011.7
20260508013137 74 211 0.0 2.0 0.00 0.00 0.00 30 1011.7
20260508012536 74 221 0.0 2.0 0.00 0.00 0.00 29 1011.5
20260508012047 74 178 0.0 2.0 0.00 0.00 0.00 29 1011.5
20260508011616 74 197 1.0 2.0 0.00 0.00 0.00 28 1011.5
20260508011024 75 178 1.0 2.0 0.00 0.00 0.00 29 1011.5
20260508010541 75 174 1.0 3.0 0.00 0.00 0.00 29 1011.5
20260508010140 75 200 1.0 3.0 0.00 0.00 0.00 28 1011.7
20260508005536 76 186 1.0 3.0 0.00 0.00 0.00 27 1011.9
20260508005046 76 196 0.0 3.0 0.00 0.00 0.00 29 1011.8
20260508004616 76 223 0.0 2.0 0.00 0.00 0.00 31 1011.8
20260508004029 76 167 1.0 3.0 0.00 0.00 0.00 31 1011.8
20260508003541 76 312 0.0 3.0 0.00 0.00 0.00 31 1011.9
20260508003055 77 101 0.0 3.0 0.00 0.00 0.00 28 1012.1
20260508002544 77 96 0.0 3.0 0.00 0.00 0.00 29 1012.0
20260508002025 77 38 0.0 2.0 0.00 0.00 0.00 28 1012.0
20260508001611 76 286 0.0 2.0 0.00 0.00 0.00 29 1011.9
20260508001030 75 197 0.0 2.0 0.00 0.00 0.00 29 1011.9
20260508000524 75 180 0.0 3.0 0.00 0.00 0.00 29 1011.9
20260508000128 76 10 0.0 3.0 0.00 0.00 0.00 29 1012.1
20260507235525 76 54 1.0 3.0 0.00 0.00 0.00 27 1012.0
20260507235030 77 39 0.0 2.0 0.00 0.00 0.00 28 1012.2
20260507234624 77 59 0.0 2.0 0.00 0.00 0.00 26 1012.3
20260507234041 77 49 0.0 4.0 0.00 0.00 0.00 26 1012.2
20260507233533 78 360 2.0 4.0 0.00 0.00 0.00 25 1012.2
20260507233103 79 338 1.0 3.0 0.00 0.00 0.00 24 1012.3
20260507232537 80 30 1.0 3.0 0.00 0.00 0.00 24 1012.2
20260507232023 80 46 1.0 5.0 0.00 0.00 0.00 24 1012.4
20260507231616 81 288 2.0 5.0 0.00 0.00 0.00 23 1012.4
20260507231055 80 346 1.0 4.0 0.00 0.00 0.00 25 1012.5
20260507230524 80 62 2.0 4.0 0.00 0.00 0.00 25 1012.7
20260507230124 80 134 1.0 4.0 0.00 0.00 0.00 25 1012.7
20260507225536 80 19 2.0 4.0 0.00 0.00 0.00 24 1012.8
20260507225045 80 333 1.0 4.0 0.00 0.00 0.00 24 1012.9
20260507224655 80 144 2.0 4.0 0.00 0.00 0.00 24 1012.9
20260507224044 80 9 2.0 5.0 0.00 0.00 0.00 25 1013.0
20260507223600 80 55 2.0 5.0 0.00 0.00 0.00 25 1013.1
20260507223153 80 165 1.0 7.0 0.00 0.00 0.00 24 1013.1
20260507222616 80 215 3.0 7.0 0.00 0.00 0.00 23 1013.3
20260507222034 80 132 1.0 9.0 0.00 0.00 0.00 25 1013.3
20260507221610 80 211 2.0 9.0 0.00 0.00 0.00 24 1013.3
20260507221104 80 130 3.0 7.0 0.00 0.00 0.00 24 1013.4
20260507220525 81 186 2.0 4.0 0.00 0.00 0.00 23 1013.5
20260507220116 80 89 1.0 5.0 0.00 0.00 0.00 24 1013.5
20260507215528 81 93 2.0 5.0 0.00 0.00 0.00 23 1013.5
20260507215038 80 36 1.0 5.0 0.00 0.00 0.00 23 1013.5
20260507214638 80 61 2.0 6.0 0.00 0.00 0.00 24 1013.6
20260507214113 80 272 1.0 8.0 0.00 0.00 0.00 24 1013.7
20260507213526 80 244 2.0 6.0 0.00 0.00 0.00 24 1013.8
20260507213058 79 202 1.0 5.0 0.00 0.00 0.00 25 1013.8
20260507212533 79 108 1.0 6.0 0.00 0.00 0.00 24 1013.7
20260507212024 78 51 2.0 6.0 0.00 0.00 0.00 24 1013.9
20260507211620 78 53 1.0 10.0 0.00 0.00 0.00 25 1013.9
20260507211037 78 161 4.0 10.0 0.00 0.00 0.00 23 1013.9
20260507210540 78 161 2.0 7.0 0.00 0.00 0.00 24 1014.0
20260507210121 79 105 2.0 7.0 0.00 0.00 0.00 26 1014.1
20260507205549 79 346 2.0 6.0 0.00 0.00 0.00 24 1014.2
20260507205023 79 38 2.0 6.0 0.00 0.00 0.00 24 1014.2
20260507204631 78 319 0.0 6.0 0.00 0.00 0.00 24 1014.2
20260507204117 78 31 2.0 7.0 0.00 0.00 0.00 25 1014.3
20260507203557 78 218 2.0 7.0 0.00 0.00 0.00 24 1014.4
20260507203138 78 41 2.0 5.0 0.00 0.00 0.00 23 1014.5
20260507202538 78 341 1.0 5.0 0.00 0.00 0.00 26 1014.5
20260507202032 78 346 1.0 5.0 0.00 0.00 0.00 25 1014.5
20260507201615 78 99 2.0 6.0 0.00 0.00 0.00 26 1014.5
20260507201026 78 25 2.0 7.0 0.00 0.00 0.00 26 1014.5
20260507200546 78 167 1.0 7.0 0.00 0.00 0.00 25 1014.6
20260507200122 78 123 0.0 5.0 0.00 0.00 0.00 25 1014.7
20260507195536 78 80 1.0 5.0 0.00 0.00 0.00 26 1014.6
20260507195043 78 192 2.0 6.0 0.00 0.00 0.00 25 1014.6
20260507194629 78 79 1.0 4.0 0.00 0.00 0.00 25 1014.5
20260507194032 77 28 1.0 5.0 0.00 0.00 0.00 25 1014.5
20260507193539 77 329 2.0 7.0 0.00 0.00 0.00 22 1014.5
20260507193131 78 158 1.0 4.0 0.00 0.00 0.00 24 1014.6
20260507192523 77 80 1.0 3.0 0.00 0.00 0.00 26 1014.7
20260507192019 76 146 1.0 5.0 0.00 0.00 0.00 25 1014.6
20260507191618 75 156 1.0 3.0 0.00 0.00 0.00 28 1014.6
20260507191022 75 342 1.0 4.0 0.00 0.00 0.00 26 1014.6
20260507190529 75 9 1.0 5.0 0.00 0.00 0.00 26 1014.7
20260507190226 75 298 1.0 5.0 0.00 0.00 0.00 26 1014.9
20260507190222 75 163 0.0 4.0 0.00 0.00 0.00 26 1014.8
20260507184541 74 352 2.0 5.0 0.00 0.00 0.00 29 1014.7
20260507184042 74 328 2.0 6.0 0.00 0.00 0.00 29 1015.0
20260507183610 74 20 1.0 6.0 0.00 0.00 0.00 29 1015.0
20260507183116 74 341 2.0 8.0 0.00 0.00 0.00 30 1015.1
20260507182538 73 11 1.0 8.0 0.00 0.00 0.00 30 1015.0
20260507182042 73 36 1.0 8.0 0.00 0.00 0.00 29 1015.1
20260507181620 73 298 1.0 7.0 0.00 0.00 0.00 32 1015.2
20260507181107 73 61 2.0 4.0 0.00 0.00 0.00 30 1015.2
20260507180537 73 49 1.0 5.0 0.00 0.00 0.00 33 1015.2
20260507180057 73 26 2.0 6.0 0.00 0.00 0.00 32 1015.1
20260507175523 72 115 1.0 8.0 0.00 0.00 0.00 32 1015.2
20260507175032 71 341 2.0 8.0 0.00 0.00 0.00 34 1015.3
20260507174607 71 17 2.0 5.0 0.00 0.00 0.00 32 1015.4
20260507174025 71 265 2.0 5.0 0.00 0.00 0.00 34 1015.6
20260507173538 70 306 1.0 5.0 0.00 0.00 0.00 36 1015.5
20260507173110 69 320 2.0 9.0 0.00 0.00 0.00 35 1015.5
20260507172539 69 11 1.0 10.0 0.00 0.00 0.00 36 1015.4
20260507172040 69 292 2.0 10.0 0.00 0.00 0.00 35 1015.5
20260507171620 69 339 1.0 6.0 0.00 0.00 0.00 36 1015.4
20260507171021 69 316 3.0 6.0 0.00 0.00 0.00 35 1015.5
20260507170542 68 51 2.0 5.0 0.00 0.00 0.00 38 1015.6
20260507170117 68 319 1.0 6.0 0.00 0.00 0.00 38 1015.7
20260507165606 67 347 3.0 6.0 0.00 0.00 0.00 37 1015.5
20260507165029 67 231 2.0 7.0 0.00 0.00 0.00 38 1015.5
20260507164557 67 250 2.0 7.0 0.00 0.00 0.00 39 1015.5
20260507164048 66 290 2.0 9.0 0.00 0.00 0.00 40 1015.6
20260507163528 65 244 1.0 7.0 0.00 0.00 0.00 41 1015.6
20260507163131 65 324 2.0 7.0 0.00 0.00 0.00 40 1015.7
20260507162536 65 319 1.0 9.0 0.00 0.00 0.00 41 1015.6
20260507162024 64 265 2.0 7.0 0.00 0.00 0.00 42 1015.7
20260507161623 64 15 2.0 7.0 0.00 0.00 0.00 42 1015.8
20260507161040 63 41 2.0 7.0 0.00 0.00 0.00 43 1016.0
20260507160531 63 352 2.0 9.0 0.00 0.00 0.00 43 1016.0
20260507160109 63 279 2.0 9.0 0.00 0.00 0.00 44 1016.0
20260507155532 62 298 2.0 8.0 0.00 0.00 0.00 44 1016.0
20260507155022 62 269 1.0 8.0 0.00 0.00 0.00 46 1016.1
20260507154623 61 314 1.0 8.0 0.00 0.00 0.00 45 1016.1
20260507154021 61 275 1.0 5.0 0.00 0.00 0.00 47 1016.0
20260507153536 60 252 2.0 6.0 0.00 0.00 0.00 46 1016.2
20260507153110 60 174 1.0 9.0 0.00 0.00 0.00 47 1016.2
20260507152558 60 16 2.0 6.0 0.00 0.00 0.00 47 1016.3
20260507152027 59 298 3.0 7.0 0.00 0.00 0.00 49 1016.3
20260507151555 59 352 2.0 7.0 0.00 0.00 0.00 47 1016.4
20260507151109 59 216 1.0 9.0 0.00 0.00 0.00 49 1016.4
20260507150526 59 22 2.0 9.0 0.00 0.00 0.00 49 1016.5
20260507150106 58 273 1.0 6.0 0.00 0.00 0.00 49 1016.5
20260507145540 58 328 1.0 7.0 0.00 0.00 0.00 50 1016.5
20260507145114 58 216 2.0 7.0 0.00 0.00 0.00 50 1016.5
20260507144619 58 287 1.0 6.0 0.00 0.00 0.00 50 1016.4
20260507144103 57 251 2.0 8.0 0.00 0.00 0.00 50 1016.4
20260507143533 57 258 2.0 8.0 0.00 0.00 0.00 50 1016.5
20260507143110 57 207 1.0 5.0 0.00 0.00 0.00 52 1016.4
20260507142540 57 282 0.0 8.0 0.00 0.00 0.00 52 1016.5
20260507142042 56 332 1.0 11.0 0.00 0.00 0.00 52 1016.4
20260507141631 56 42 1.0 11.0 0.00 0.00 0.00 51 1016.5
20260507141115 56 267 1.0 5.0 0.00 0.00 0.00 51 1016.4
20260507140544 56 27 1.0 5.0 0.00 0.00 0.00 52 1016.3
20260507140133 56 279 2.0 5.0 0.00 0.00 0.00 51 1016.4
20260507135548 56 273 2.0 5.0 0.00 0.00 0.00 52 1016.4
20260507135054 55 269 2.0 5.0 0.00 0.00 0.00 53 1016.3
20260507134631 55 151 1.0 5.0 0.00 0.00 0.00 53 1016.1
20260507134100 54 138 0.0 3.0 0.00 0.00 0.00 54 1016.2
20260507133536 54 310 0.0 3.0 0.00 0.00 0.00 55 1016.1
20260507133136 54 264 1.0 3.0 0.00 0.00 0.00 55 1016.1
20260507132603 54 252 0.0 3.0 0.00 0.00 0.00 55 1016.0
20260507132048 54 269 0.0 8.0 0.00 0.00 0.00 55 1016.0
20260507131629 53 191 3.0 8.0 0.00 0.00 0.00 56 1016.2
20260507131100 53 230 2.0 5.0 0.00 0.00 0.00 55 1016.0
20260507130544 53 258 2.0 4.0 0.00 0.00 0.00 56 1016.0
20260507130145 53 221 1.0 5.0 0.00 0.00 0.00 56 1015.8
20260507125522 53 255 2.0 6.0 0.00 0.00 0.00 55 1015.7
20260507125033 53 249 2.0 4.0 0.00 0.00 0.00 56 1015.7
20260507124627 53 263 2.0 3.0 0.00 0.00 0.00 55 1015.5
20260507124033 53 257 0.0 4.0 0.00 0.00 0.00 55 1015.6
20260507123531 53 209 2.0 4.0 0.00 0.00 0.00 55 1015.5
20260507123108 53 251 2.0 4.0 0.00 0.00 0.00 55 1015.5
20260507122527 53 284 1.0 4.0 0.00 0.00 0.00 54 1015.6
20260507122019 54 271 1.0 5.0 0.00 0.00 0.00 54 1015.7
20260507121556 54 292 1.0 5.0 0.00 0.00 0.00 54 1015.5
20260507121041 54 250 2.0 5.0 0.00 0.00 0.00 53 1015.7
20260507120522 54 236 2.0 6.0 0.00 0.00 0.00 53 1015.7
20260507120147 54 259 2.0 6.0 0.00 0.00 0.00 53 1015.7
20260507115618 54 264 2.0 5.0 0.00 0.00 0.00 53 1015.8
20260507115112 54 222 2.0 8.0 0.00 0.00 0.00 53 1015.8
20260507114627 54 201 3.0 8.0 0.00 0.00 0.00 53 1016.0
20260507114032 54 271 2.0 4.0 0.00 0.00 0.00 53 1016.0